FW1970 Weather Reports


Display with metric or nautical units.
time (UTC)temp
F
wind
direction
speed
MPH
gust
MPH
rain 1hr
in
rain 24hr
in
rain mn
in
humidity
%
barometer
mb
20260903183044 85 121 2.0 10.0 0.00 0.28 0.28 55 1012.9
20260903181541 84 222 4.0 10.0 0.00 0.28 0.28 55 1013.3
20260903180048 83 217 5.0 12.0 0.00 0.28 0.28 56 1013.5
20260903174541 83 207 4.0 10.0 0.00 0.28 0.28 57 1013.6
20260903173038 81 229 7.0 11.0 0.00 0.28 0.28 58 1013.9
20260903171536 81 225 4.0 13.0 0.00 0.28 0.28 60 1013.9
20260903170036 81 133 1.0 10.0 0.00 0.28 0.28 62 1014.0
20260903164532 79 220 3.0 10.0 0.00 0.28 0.28 63 1014.0
20260903163032 78 148 4.0 8.0 0.00 0.28 0.28 64 1014.2
20260903161527 76 166 6.0 11.0 0.00 0.28 0.28 66 1014.3
20260903160027 74 140 6.0 11.0 0.00 0.28 0.28 69 1014.5
20260903154524 72 360 5.0 12.0 0.00 0.28 0.28 78 1015.0
20260903153023 71 360 5.0 11.0 0.00 0.28 0.28 84 1015.3
20260903151521 71 360 3.0 9.0 0.01 0.28 0.28 85 1015.5
20260903150028 70 360 4.0 8.0 0.01 0.28 0.28 86 1015.7
20260903144517 69 360 4.0 8.0 0.03 0.28 0.28 84 1015.5
20260903143024 69 360 2.0 11.0 0.05 0.28 0.28 83 1016.0
20260903141514 69 360 6.0 11.0 0.17 0.27 0.27 82 1015.0
20260903140017 69 360 2.0 4.0 0.18 0.27 0.27 80 1015.2
20260903134510 68 360 0.0 3.0 0.25 0.25 0.25 77 1015.8
20260903133007 69 360 0.0 6.0 0.23 0.23 0.23 75 1015.7
20260903131508 69 360 2.0 5.0 0.10 0.10 0.10 73 1015.5
20260903130004 69 360 2.0 8.0 0.09 0.09 0.09 72 1015.5
20260903124504 69 360 0.0 2.0 0.00 0.00 0.00 70 1015.6
20260903123100 69 360 1.0 4.0 0.00 0.00 0.00 69 1015.5
20260903121557 70 360 2.0 5.0 0.00 0.00 0.00 68 1015.6
20260903120053 71 360 1.0 6.0 0.00 0.00 0.00 66 1015.4
20260903114550 73 360 6.0 14.0 0.00 0.00 0.00 64 1015.2
20260903113046 75 360 3.0 9.0 0.00 0.00 0.00 66 1014.7
20260903111543 75 360 1.0 4.0 0.00 0.00 0.00 66 1013.5
20260903110042 75 360 1.0 3.0 0.00 0.00 0.00 66 1013.4
20260903104541 76 360 0.0 3.0 0.00 0.00 0.00 66 1013.3
20260903103039 76 360 0.0 3.0 0.00 0.00 0.00 66 1013.6
20260903101539 76 360 1.0 2.0 0.00 0.00 0.00 66 1013.3
20260903100038 76 360 0.0 3.0 0.00 0.00 0.00 65 1013.4
20260903094535 76 360 1.0 3.0 0.00 0.00 0.00 64 1013.2
20260903093041 77 360 1.0 3.0 0.00 0.00 0.00 63 1013.2
20260903091535 77 360 0.0 3.0 0.00 0.00 0.00 63 1013.2
20260903090031 77 360 1.0 4.0 0.00 0.00 0.00 63 1013.3
20260903084530 77 360 2.0 6.0 0.00 0.00 0.00 63 1013.6
20260903083039 78 360 2.0 9.0 0.00 0.00 0.00 62 1013.5
20260903081525 78 360 2.0 9.0 0.00 0.00 0.00 61 1013.5
20260903080023 78 360 3.0 8.0 0.00 0.00 0.00 62 1013.1
20260903074523 78 360 4.0 8.0 0.00 0.00 0.00 62 1012.7
20260903073021 78 360 6.0 10.0 0.00 0.00 0.00 62 1012.6
20260903071520 78 360 4.0 8.0 0.00 0.00 0.00 62 1012.7
20260903070019 78 360 4.0 10.0 0.00 0.00 0.00 62 1012.7
20260903064526 78 360 4.0 8.0 0.00 0.00 0.00 62 1012.9
20260903063016 78 360 6.0 10.0 0.00 0.00 0.00 62 1012.9
20260903061521 79 360 1.0 9.0 0.00 0.00 0.00 62 1013.0
20260903060017 79 360 3.0 5.0 0.00 0.00 0.00 62 1013.2
20260903054512 79 360 4.0 10.0 0.00 0.00 0.00 61 1013.1
20260903053009 79 360 3.0 9.0 0.00 0.00 0.00 61 1013.2
20260903051506 80 360 3.0 10.0 0.00 0.00 0.00 61 1013.2
20260903050005 80 360 3.0 9.0 0.00 0.00 0.00 61 1013.1
20260903044507 80 360 6.0 12.0 0.00 0.00 0.00 60 1012.9
20260903043100 80 360 5.0 10.0 0.00 0.00 0.00 60 1012.7
20260903041615 80 360 4.0 11.0 0.00 0.00 0.00 60 1012.5
20260903040056 81 360 4.0 9.0 0.00 0.00 0.00 59 1012.3
20260903034600 81 360 4.0 10.0 0.00 0.00 0.00 59 1012.4
20260903033052 81 360 3.0 9.0 0.00 0.00 0.00 59 1012.7
20260903031553 81 360 4.0 8.0 0.00 0.00 0.00 59 1012.9
20260903030051 81 360 3.0 8.0 0.00 0.00 0.00 59 1013.1
20260903024553 82 360 4.0 10.0 0.00 0.00 0.00 58 1013.2
20260903023115 82 360 3.0 10.0 0.00 0.00 0.00 58 1013.3
20260903021549 82 360 3.0 10.0 0.00 0.00 0.00 58 1013.4
20260903020055 81 360 5.0 11.0 0.00 0.00 0.00 61 1013.5
20260903014548 83 360 0.0 9.0 0.00 0.00 0.00 55 1013.5
20260903013051 84 360 2.0 14.0 0.00 0.00 0.00 56 1013.3
20260903011547 84 221 5.0 9.0 0.00 0.00 0.00 55 1013.2
20260903010047 84 226 5.0 11.0 0.00 0.00 0.00 55 1013.4
20260903004548 84 243 5.0 10.0 0.00 0.00 0.00 54 1013.2
20260903003044 85 211 3.0 9.0 0.00 0.00 0.00 53 1013.1
20260903001545 85 194 3.0 7.0 0.00 0.00 0.00 52 1013.1
20260903000044 86 237 4.0 7.0 0.00 0.00 0.00 51 1012.9
20260902234547 86 185 4.0 8.0 0.00 0.00 0.00 50 1013.1
20260902233043 87 251 4.0 9.0 0.00 0.00 0.00 48 1012.9
20260902231542 88 217 3.0 8.0 0.00 0.00 0.00 47 1012.8
20260902230048 89 234 5.0 10.0 0.00 0.00 0.00 45 1012.8
20260902224540 89 234 5.0 14.0 0.00 0.00 0.00 44 1012.9
20260902223040 89 212 9.0 14.0 0.00 0.00 0.00 44 1012.8
20260902221539 90 231 6.0 11.0 0.00 0.00 0.00 44 1012.8
20260902220040 90 242 9.0 15.0 0.00 0.00 0.00 44 1013.1
20260902214537 90 252 8.0 11.0 0.00 0.00 0.00 43 1013.3
20260902213036 91 238 6.0 12.0 0.00 0.00 0.00 42 1013.2
20260902211537 91 246 7.0 16.0 0.00 0.00 0.00 41 1013.1
20260902210035 91 254 8.0 14.0 0.00 0.00 0.00 41 1013.1
20260902204533 91 220 6.0 10.0 0.00 0.00 0.00 42 1013.2
20260902203030 91 196 6.0 11.0 0.00 0.00 0.00 43 1013.3
20260902201530 91 263 6.0 12.0 0.00 0.00 0.00 42 1013.6
20260902200030 91 240 9.0 14.0 0.00 0.00 0.00 41 1013.6
20260902194530 90 262 7.0 12.0 0.00 0.00 0.00 43 1013.6
20260902193025 91 223 9.0 14.0 0.00 0.00 0.00 43 1013.7
20260902191522 90 263 4.0 8.0 0.00 0.00 0.00 45 1014.0
20260902190025 90 311 3.0 7.0 0.00 0.00 0.00 46 1014.3
20260902184516 89 242 6.0 12.0 0.00 0.00 0.00 47 1014.5